Simultaneous Nadir Overpasses (SNOs) Predictions

Prediction of SNOs between FY3D and AQUA Satellite Orbit:

Table of predicted SNOs for the next 14.0 days since TLE Epoch: 8/13/2022
Index Date (FY3D) Time (FY3D) Lat,Lon (FY3D) SZA (FY3D ) Date (AQUA) Time (AQUA) Lat,Lon (AQUA) SZA (AQUA ) Distance(km) Time Diff (sec)
1 08/13/2022 20:40:28 -76.19, 38.92 118.02 08/13/2022 20:40:31 -76.19, 38.90 118.02 0.56 3
2 08/13/2022 21:29:31 71.09,-141.24 56.53 08/13/2022 21:28:18 71.02,-141.91 56.46 25.63 73
3 08/16/2022 11:16:58 -76.74, 177.81 116.57 08/16/2022 11:17:41 -76.74, 177.83 116.58 0.45 43
4 08/16/2022 12:07:20 75.63, -10.93 62.15 08/16/2022 12:06:45 75.64, -11.01 62.18 2.67 35
5 08/19/2022 02:43:56 76.48, 127.07 63.96 08/19/2022 02:44:00 76.47, 127.17 63.95 2.81 4
6 08/19/2022 03:34:19 -75.47, -62.16 117.19 08/19/2022 03:33:05 -75.46, -62.08 117.19 2.36 74
7 08/21/2022 17:20:20 76.81, -93.28 65.21 08/21/2022 17:21:04 76.81, -93.25 65.20 0.84 44
8 08/21/2022 18:10:44 -75.86, 77.52 115.89 08/21/2022 18:10:10 -75.86, 77.52 115.89 0.28 34
9 08/24/2022 08:47:15 -76.47,-143.69 114.31 08/24/2022 08:47:20 -76.47,-143.64 114.32 1.60 5
10 08/24/2022 09:37:37 75.37, 27.36 64.44 08/24/2022 09:36:24 75.38, 27.35 64.46 0.45 73
11 08/26/2022 23:23:43 -76.94, -4.58 112.87 08/26/2022 23:24:27 -76.93, -4.50 112.89 2.03 44



Historial Predications of SNOs between FY3D and AQUA
